Weather History for Cork, Ireland

Change the Weather History Date:

Saturday, August 17, 2013

  Actual Average Record
Temperature  
Mean Temperature 62 °F -  
Max Temperature 69 °F 63 °F 69 °F (1997)
Min Temperature 55 °F 50 °F 48 °F (2008)
Degree Days  
Heating Degree Days 3    
Growing Degree Days 12 (Base 50)    
Moisture  
Dew Point 59 °F    
Average Humidity 91    
Maximum Humidity 100    
Minimum Humidity 61    
Precipitation  
Precipitation 0.20 in 0.12 in - ()
Sea Level Pressure  
Sea Level Pressure 29.71 in    
Wind  
Wind Speed 15 mph ()    
Max Wind Speed 24 mph    
Max Gust Speed 44 mph    
Visibility 5.5 miles    
Events Rain    
Averages and records for this station are not official NWS values.
T = Trace of Precipitation, MM = Missing Value Source: Averaged Metar Reports

Daily Weather History Graph

Daily Weather History Graph

Search for Another Location

Airport:

Trip Planner

Search our weather history database for the weather conditions in past years. The results will help you decide how hot, cold, wet, or windy it might be!

Date:

Astronomy

Aug. 17, 2013 Rise Set
Actual Time 6:21 AM IST 8:52 PM IST
Civil Twilight 5:44 AM IST 9:30 PM IST
Nautical Twilight 4:56 AM IST 10:17 PM IST
Astronomical Twilight 3:58 AM IST 11:14 PM IST
Moon 6:09 PM IST (8/17) 1:56 AM IST (8/17)
Length of Visible Light 15h 46m
Length of Day
14h 31m
Waxing Gibbous, 82% of the Moon is Illuminated
Aug 17
Waxing Gibbous
Aug 21
Full
Aug 28
Last Quarter
Sep 5
New
Sep 12
First Quarter

Hourly Weather History & Observations

Time (IST) Temp. Dew Point Humidity Pressure Visibility Wind Dir Wind Speed Gust Speed Precip Events Conditions
12:00 AM 59.0 °F 59.0 °F 100% 29.95 in 6.2 mi SW 12.7 mph - N/A   Mostly Cloudy
12:30 AM 59.0 °F 59.0 °F 100% 29.92 in 6.2 mi SSW 12.7 mph - N/A   Mostly Cloudy
1:00 AM 59 °F 58 °F 95% 29.93 in 12 mi SSW 13.4 mph - -   Partly Cloudy
1:00 AM 59.0 °F 57.2 °F 94% 29.92 in 6.2 mi SSW 13.8 mph - N/A   Mostly Cloudy
1:30 AM 59.0 °F 59.0 °F 100% 29.89 in 6.2 mi SSW 12.7 mph - N/A Rain Light Rain
2:00 AM 59.0 °F 59.0 °F 100% 29.89 in 6.2 mi SSW 13.8 mph - N/A   Mostly Cloudy
2:30 AM 59.0 °F 59.0 °F 100% 29.86 in 6.2 mi SSW 13.8 mph - N/A   Mostly Cloudy
3:00 AM 59.0 °F 59.0 °F 100% 29.86 in 6.2 mi SSW 18.4 mph - N/A   Mostly Cloudy
3:30 AM 60.8 °F 59.0 °F 94% 29.83 in 6.2 mi SSW 17.3 mph - N/A   Mostly Cloudy
4:00 AM 60.8 °F 59.0 °F 94% 29.83 in 6.2 mi SSW 18.4 mph - N/A   Mostly Cloudy
4:30 AM 60.8 °F 59.0 °F 94% 29.80 in 6.2 mi SW 20.7 mph - N/A   Mostly Cloudy
5:00 AM 60.8 °F 59.0 °F 94% 29.77 in 6.2 mi SSW 18.4 mph - N/A Rain Light Rain
5:30 AM 60.8 °F 59.0 °F 94% 29.77 in 6.2 mi SSW 20.7 mph 32.2 mph N/A Rain Light Rain
6:00 AM 59.0 °F 59.0 °F 100% 29.74 in 4.3 mi SSW 19.6 mph - N/A Rain Light Rain
6:30 AM 59.0 °F 59.0 °F 100% 29.74 in 2.5 mi SSW 17.3 mph - N/A Rain Light Rain
7:00 AM 60 °F 60 °F 100% 29.74 in 2 mi SSW 20.1 mph - - Rain Light Rain
7:00 AM 60.8 °F 60.8 °F 100% 29.74 in 1.7 mi SSW 20.7 mph - N/A Rain Light Rain
7:30 AM 60.8 °F 60.8 °F 100% 29.74 in 2.8 mi SSW 24.2 mph - N/A Rain Light Rain
8:00 AM 60.8 °F 60.8 °F 100% 29.68 in 2.2 mi SSW 21.9 mph - N/A Rain Light Rain
8:30 AM 60.8 °F 60.8 °F 100% 29.68 in 1.0 mi SSW 21.9 mph 35.7 mph N/A Rain Light Rain
9:00 AM 60.8 °F 60.8 °F 100% 29.68 in 1.4 mi SSW 21.9 mph - N/A Rain Light Rain
9:30 AM 60.8 °F 60.8 °F 100% 29.65 in 1.7 mi SW 23.0 mph - N/A Rain Light Rain
10:00 AM 60.8 °F 60.8 °F 100% 29.65 in 2.5 mi SW 23.0 mph - N/A Rain Light Rain
10:30 AM 62.6 °F 62.6 °F 100% 29.65 in 2.8 mi SW 21.9 mph - N/A Rain Light Rain
11:00 AM 62.6 °F 62.6 °F 100% 29.65 in 3.1 mi SW 18.4 mph - N/A Rain Light Rain
11:30 AM 64.4 °F 64.4 °F 100% 29.62 in 6.2 mi SW 20.7 mph - N/A Rain Light Rain
12:00 PM 64.4 °F 64.4 °F 100% 29.62 in 3.7 mi SW 18.4 mph - N/A   Light Drizzle
12:30 PM 66.2 °F 66.2 °F 100% 29.62 in 6.2 mi SW 17.3 mph - N/A   Mostly Cloudy
1:00 PM 67 °F 67 °F 98% 29.62 in 16 mi WSW 15.7 mph - - Rain Light Rain
1:00 PM 66.2 °F 66.2 °F 100% 29.62 in 6.2 mi WSW 15.0 mph 27.6 mph N/A   Mostly Cloudy
1:30 PM 68.0 °F 64.4 °F 88% 29.62 in 6.2 mi WSW 19.6 mph - N/A   Mostly Cloudy
2:00 PM 68.0 °F 62.6 °F 83% 29.62 in 6.2 mi WSW 21.9 mph - N/A   Scattered Clouds
2:30 PM 66.2 °F 60.8 °F 83% 29.62 in 6.2 mi WSW 21.9 mph 34.5 mph N/A   Mostly Cloudy
3:00 PM 68.0 °F 60.8 °F 78% 29.62 in 6.2 mi West 20.7 mph - N/A   Scattered Clouds
3:30 PM 68.0 °F 59.0 °F 73% 29.62 in 6.2 mi WSW 20.7 mph 43.7 mph N/A   Mostly Cloudy
4:00 PM 68.0 °F 59.0 °F 73% 29.62 in 6.2 mi WSW 21.9 mph - N/A Rain Light Rain Showers
4:30 PM 68.0 °F 57.2 °F 68% 29.62 in 6.2 mi West 23.0 mph - N/A   Scattered Clouds
5:00 PM 66.2 °F 57.2 °F 73% 29.62 in 6.2 mi West 16.1 mph - N/A   Scattered Clouds
5:30 PM 66.2 °F 55.4 °F 68% 29.62 in 6.2 mi WSW 15.0 mph - N/A   Scattered Clouds
6:00 PM 64.4 °F 57.2 °F 77% 29.65 in 6.2 mi West 17.3 mph - N/A   Mostly Cloudy
6:30 PM 64.4 °F 55.4 °F 73% 29.65 in 6.2 mi West 17.3 mph - N/A   Scattered Clouds
7:00 PM 65 °F 55 °F 61% 29.65 in 25 mi West 15.7 mph - -   Partly Cloudy
7:00 PM 64.4 °F 55.4 °F 73% 29.65 in 6.2 mi West 16.1 mph - N/A   Partly Cloudy
7:30 PM 64.4 °F 55.4 °F 73% 29.65 in 6.2 mi West 16.1 mph - N/A   Scattered Clouds
8:00 PM 62.6 °F 55.4 °F 77% 29.68 in 6.2 mi West 12.7 mph - N/A   Mostly Cloudy
8:30 PM 60.8 °F 55.4 °F 82% 29.68 in 6.2 mi West 10.4 mph - N/A   Mostly Cloudy
9:00 PM 59.0 °F 55.4 °F 88% 29.68 in 6.2 mi West 6.9 mph - N/A   Mostly Cloudy
9:30 PM 57.2 °F 53.6 °F 88% 29.71 in 6.2 mi West 6.9 mph - N/A   Scattered Clouds
10:00 PM 55.4 °F 53.6 °F 94% 29.71 in 6.2 mi WSW 6.9 mph - N/A   Scattered Clouds
10:30 PM 57.2 °F 55.4 °F 94% 29.71 in 6.2 mi WSW 5.8 mph - N/A   Mostly Cloudy
11:00 PM 57.2 °F 55.4 °F 94% 29.71 in 6.2 mi WSW 9.2 mph - N/A   Mostly Cloudy
11:30 PM 57.2 °F 55.4 °F 94% 29.71 in 6.2 mi WSW 8.1 mph - N/A   Scattered Clouds